Date String (YYYY-MM-DD hh:mm:ss) UTC,Instrument flags,Ambient pressure (hPa),Sample flow (lpm),Bypass flow (lpm),Sample temperature (°C),Ambient temperature (°C),ASC tube jacket temperature (°C),LED temperature (°C),Box temperature (°C),Sample RH (%),Span deviation,Mass concentration (μg/m³),Mass concentration (μg/m³),Mass concentration (μg/m³)
DateTimeUTC,F1_M11,P_M11,Q1_M11,Q2_M11,T1_M11,T2_M11,T3_M11,T4_M11,T5_M11,U1_M11,ZSPAN_M11,X0_M11,X2_M11,X1_M11
2022-06-01 21:00:00,,0830.4,5.01,0.00,27.5,26.7,00.0,36.3,29.5,21.5,0000.0,0004.64,0002.95,0002.70
2022-06-01 21:01:00,,0830.4,5.00,0.00,27.5,26.7,00.0,36.3,29.5,21.6,0000.0,0004.53,0002.87,0002.64
2022-06-01 21:02:00,,0830.4,5.00,0.00,27.5,26.7,00.0,36.3,29.5,21.6,0000.0,0004.44,0002.81,0002.60
2022-06-01 21:03:00,,0830.4,5.00,0.00,27.6,26.7,00.0,36.4,29.5,21.1,0000.0,0004.18,0002.81,0002.61
2022-06-01 21:04:00,,0830.4,5.01,0.00,27.6,26.7,00.0,36.4,29.5,21.1,0000.0,0003.70,0002.81,0002.60
2022-06-01 21:05:00,,0830.4,4.99,0.00,27.6,26.7,00.0,36.4,29.5,21.5,0000.0,0003.70,0002.81,0002.60
2022-06-01 21:06:00,,0830.4,5.00,0.00,27.6,26.7,00.0,36.4,29.5,21.4,0000.0,0003.05,0002.76,0002.59
2022-06-01 21:07:00,,0830.4,5.00,0.00,27.6,26.7,00.0,36.4,29.5,21.0,0000.0,0003.08,0002.80,0002.61
2022-06-01 21:08:00,,0830.4,5.00,0.00,27.6,26.7,00.0,36.4,29.5,20.5,0000.0,0003.07,0002.82,0002.64
2022-06-01 21:09:00,,0830.4,4.99,0.00,27.6,26.7,00.0,36.4,29.5,20.5,0000.0,0003.12,0002.85,0002.68
2022-06-01 21:10:00,,0830.3,5.00,0.00,27.6,26.7,00.0,36.4,29.5,20.7,0000.0,0003.24,0002.93,0002.74
2022-06-01 21:11:00,,0830.3,5.00,0.00,27.6,26.7,00.0,36.4,29.5,21.0,0000.0,0003.32,0002.99,0002.78
2022-06-01 21:12:00,,0830.3,5.00,0.00,27.6,26.7,00.0,36.5,29.5,20.8,0000.0,0003.41,0003.04,0002.83
2022-06-01 21:13:00,,0830.3,4.99,0.00,27.6,26.7,00.0,36.5,29.6,20.9,0000.0,0003.55,0003.11,0002.88
2022-06-01 21:14:00,,0830.3,4.99,0.00,27.6,26.7,00.0,36.5,29.6,20.9,0000.0,0003.72,0003.14,0002.89
2022-06-01 21:15:00,,0830.3,5.00,0.00,27.6,26.7,00.0,36.5,29.6,20.7,0000.0,0003.83,0003.17,0002.90
2022-06-01 21:16:00,,0830.2,5.00,0.00,27.6,26.7,00.0,36.5,29.6,20.8,0000.0,0003.82,0003.17,0002.91
2022-06-01 21:17:00,,0830.2,5.00,0.00,27.7,26.8,00.0,36.5,29.6,20.8,0000.0,0003.88,0003.19,0002.94
2022-06-01 21:18:00,,0830.2,4.99,0.00,27.7,26.8,00.0,36.5,29.6,20.5,0000.0,0003.87,0003.20,0002.96
2022-06-01 21:19:00,,0830.2,5.00,0.00,27.7,26.8,00.0,36.5,29.6,20.6,0000.0,0003.85,0003.20,0002.97
2022-06-01 21:20:00,,0830.2,5.01,0.00,27.7,26.8,00.0,36.5,29.6,21.0,0000.0,0003.90,0003.20,0002.96
2022-06-01 21:21:00,,0830.2,4.99,0.00,27.7,26.8,00.0,36.5,29.6,21.2,0000.0,0003.92,0003.20,0002.94
2022-06-01 21:22:00,,0830.1,4.99,0.00,27.7,26.8,00.0,36.5,29.6,21.1,0000.0,0004.47,0003.21,0002.94
2022-06-01 21:23:00,,0830.2,5.00,0.00,27.7,26.8,00.0,36.6,29.6,20.8,0000.0,0004.53,0003.21,0002.94
2022-06-01 21:24:00,,0830.2,5.00,0.00,27.7,26.8,00.0,36.6,29.6,20.5,0000.0,0004.52,0003.22,0002.97
2022-06-01 21:25:00,,0830.2,5.00,0.00,27.7,26.8,00.0,36.6,29.6,20.8,0000.0,0004.46,0003.22,0002.97
2022-06-01 21:26:00,,0830.2,5.01,0.00,27.7,26.8,00.0,36.6,29.7,20.7,0000.0,0004.53,0003.21,0002.97
2022-06-01 21:27:00,,0830.2,5.00,0.00,27.7,26.8,00.0,36.6,29.7,20.9,0000.0,0004.57,0003.21,0002.96
2022-06-01 21:28:00,,0830.1,5.00,0.00,27.7,26.9,00.0,36.6,29.7,21.4,0000.0,0004.57,0003.21,0002.95
2022-06-01 21:29:00,,0830.1,5.01,0.00,27.7,26.8,00.0,36.6,29.7,21.1,0000.0,0004.54,0003.19,0002.95
2022-06-01 21:30:00,,0830.1,4.99,0.00,27.7,26.8,00.0,36.6,29.7,21.3,0000.0,0004.50,0003.18,0002.93
2022-06-01 21:31:00,,0830.1,5.00,0.00,27.7,26.8,00.0,36.6,29.7,21.6,0000.0,0004.44,0003.17,0002.92
2022-06-01 21:32:00,,0830.1,5.00,0.00,27.7,26.8,00.0,36.6,29.7,21.3,0000.0,0004.32,0003.15,0002.92
2022-06-01 21:33:00,,0830.1,5.00,0.00,27.7,26.8,00.0,36.6,29.6,21.8,0000.0,0003.76,0003.13,0002.91
2022-06-01 21:34:00,,0830.0,5.00,0.00,27.7,26.8,00.0,36.6,29.6,21.1,0000.0,0003.67,0003.13,0002.90
2022-06-01 21:35:00,,0830.0,4.99,0.00,27.7,26.8,00.0,36.7,29.6,21.1,0000.0,0003.74,0003.12,0002.88
2022-06-01 21:36:00,,0830.0,5.01,0.00,27.7,26.8,00.0,36.7,29.6,21.2,0000.0,0003.72,0003.12,0002.86
2022-06-01 21:37:00,,0830.0,5.00,0.00,27.7,26.8,00.0,36.6,29.6,21.2,0000.0,0003.55,0003.09,0002.85
2022-06-01 21:38:00,,0830.1,5.00,0.00,27.7,26.7,00.0,36.6,29.6,20.8,0000.0,0003.56,0003.09,0002.84
2022-06-01 21:39:00,,0830.0,4.99,0.00,27.7,26.7,00.0,36.7,29.6,20.9,0000.0,0003.59,0003.11,0002.84
2022-06-01 21:40:00,,0830.1,5.01,0.00,27.7,26.7,00.0,36.7,29.6,20.8,0000.0,0003.63,0003.12,0002.84
2022-06-01 21:41:00,,0830.1,4.99,0.00,27.7,26.7,00.0,36.6,29.6,21.5,0000.0,0003.62,0003.11,0002.83
2022-06-01 21:42:00,,0830.1,5.01,0.00,27.7,26.8,00.0,36.7,29.6,21.3,0000.0,0003.52,0003.06,0002.81
2022-06-01 21:43:00,,0830.0,5.01,0.00,27.7,26.8,00.0,36.7,29.7,21.6,0000.0,0003.68,0003.04,0002.79
2022-06-01 21:44:00,,0830.1,5.00,0.00,27.7,26.8,00.0,36.7,29.7,21.1,0000.0,0004.55,0003.04,0002.79
2022-06-01 21:45:00,,0830.0,4.99,0.00,27.8,26.8,00.0,36.7,29.7,21.1,0000.0,0004.67,0003.05,0002.79
2022-06-01 21:46:00,,0830.0,5.01,0.00,27.8,26.8,00.0,36.7,29.7,21.1,0000.0,0004.67,0003.05,0002.78
2022-06-01 21:47:00,,0830.0,5.00,0.00,27.8,26.9,00.0,36.7,29.7,21.1,0000.0,0004.60,0003.01,0002.77
2022-06-01 21:48:00,,0830.0,5.01,0.00,27.8,26.9,00.0,36.7,29.7,22.2,0000.0,0004.57,0002.99,0002.76
2022-06-01 21:49:00,,0830.0,5.00,0.00,27.8,26.9,00.0,36.7,29.7,21.4,0000.0,0004.58,0002.98,0002.76
2022-06-01 21:50:00,,0830.0,5.00,0.00,27.8,26.9,00.0,36.7,29.7,21.0,0000.0,0004.52,0002.95,0002.75
2022-06-01 21:51:00,,0830.0,5.00,0.00,27.8,26.9,00.0,36.7,29.7,21.1,0000.0,0004.49,0002.93,0002.73
2022-06-01 21:52:00,,0830.0,5.00,0.00,27.8,26.9,00.0,36.7,29.7,21.4,0000.0,0004.53,0002.95,0002.73
2022-06-01 21:53:00,,0830.0,5.01,0.00,27.8,26.9,00.0,36.7,29.7,21.5,0000.0,0004.62,0003.00,0002.73
2022-06-01 21:54:00,,0830.0,5.01,0.00,27.8,26.9,00.0,36.7,29.7,20.8,0000.0,0004.44,0003.02,0002.75
2022-06-01 21:55:00,,0830.0,4.99,0.00,27.8,26.9,00.0,36.7,29.7,21.0,0000.0,0003.58,0003.04,0002.76
2022-06-01 21:56:00,,0830.0,4.99,0.00,27.8,26.9,00.0,36.7,29.7,21.2,0000.0,0003.48,0003.03,0002.76
2022-06-01 21:57:00,,0830.0,5.00,0.00,27.8,26.9,00.0,36.7,29.7,21.5,0000.0,0003.41,0003.01,0002.75
2022-06-01 21:58:00,,0830.0,5.01,0.00,27.8,26.9,00.0,36.7,29.7,21.4,0000.0,0003.44,0003.01,0002.75
2022-06-01 21:59:00,,0830.0,5.00,0.00,27.8,26.9,00.0,36.7,29.7,21.1,0000.0,0003.43,0003.02,0002.76
